Location: Franzen
(48.6167°N, 15.3833°E)
Time: 07:04:23
(UTC+00:00)

Cosmos 2221 - Visible Passes

Search period start: 29 July 2021 00:00
Search period end: 08 August 2021 00:00
Orbit: 591 x 616 km, 82.5° (Epoch: 28 July)

Date Brightness Start Highest point End Pass type
(mag) Time Alt. Az. Time Alt. Az. Time Alt. Az.
29 Jul 4.1 19:45:19 10° NNW 19:49:14 35° W 19:53:09 10° SSW visible
30 Jul 4.8 19:58:18 10° NW 20:01:39 22° W 20:05:01 10° SW visible
31 Jul 5.3 20:11:39 10° NW 20:14:02 15° W 20:16:23 10° WSW visible
03 Aug 4.4 19:10:44 10° NNW 19:14:35 32° W 19:18:26 10° SSW visible
04 Aug 5.2 19:23:45 10° NW 19:26:59 21° W 19:30:14 10° SW visible
05 Aug 5.5 19:37:13 10° NW 19:39:21 13° W 19:41:28 10° WSW visible
